AirNav   Everest Fuels
 
 1673 users online  

KHSD Sundance Airport
Oklahoma City, Oklahoma, USA

GOING TO OKLAHOMA CITY?


FAA INFORMATION EFFECTIVE 22 APRIL 2021

Location

FAA Identifier: HSD
Lat/Long: 35-36-06.6000N 097-42-22.2000W
35-36.110000N 097-42.370000W
35.6018333,-97.7061667
(estimated)
Elevation: 1192.9 ft. / 363.6 m (surveyed)
Variation: 04E (2020)
From city: 12 miles NW of OKLAHOMA CITY, OK
Time zone: UTC -5 (UTC -6 during Standard Time)
Zip code: 73099

Airport Operations

Airport use: Open to the public
Control tower: no
ARTCC: FORT WORTH CENTER
FSS: MC ALESTER FLIGHT SERVICE STATION
NOTAMs facility: HSD (NOTAM-D service available)
Attendance: 0600-2000
Wind indicator: lighted
Segmented circle: no
Lights: ACTVT MIRL RY 18/36 AND VASI RYS 18 & 36 - CTAF.
Beacon: white-green (lighted land airport)
Operates sunset to sunrise.

Airport Communications

CTAF/UNICOM: 122.7
WX AWOS-3: 120.975 (405-283-9848)
OKE CITY APPROACH: 124.6
OKE CITY DEPARTURE: 124.6
CLEARANCE DELIVERY: 123.7
WX ASOS at PWA (5 nm SE): PHONE 405-798-2013
WX AWOS-3 at RCE (9 nm SW): 125.05 (405-354-2617)
WX ASOS at OKC (14 nm S): PHONE 405-686-4711
WX AWOS-3 at RQO (17 nm SW): 118.475 (405-262-0087)

Nearby radio navigation aids

VOR radial/distance  VOR name  Freq  Var
PWAr317/5.0WILEY POST VOR/DME113.4008E
IRWr335/15.3WILL ROGERS VORTAC114.1007E
IFIr121/19.0KINGFISHER VORTAC114.7009E

Airport Services

Fuel available: 100LL JET-A
100LL AVBL 24 HR SELF-SERVE WITH CREDIT CARD.
Parking: hangars and tiedowns
Airframe service: MAJOR
Powerplant service: MAJOR
Bottled oxygen: HIGH/LOW
AVBL DRG NML OPR - MON-SAT.
Bulk oxygen: HIGH/LOW
AVBL DRG NML OPR- MON-SAT.

Runway Information

Runway 18/36

Dimensions: 5001 x 100 ft. / 1524 x 30 m
Surface: concrete, in good condition
Runway edge lights: medium intensity
RUNWAY 18  RUNWAY 36
Latitude: 35-36.521587N35-35.697898N
Longitude: 097-42.387280W097-42.351513W
Elevation: 1152.9 ft.1192.9 ft.
Traffic pattern: rightleft
Runway heading: 174 magnetic, 178 true354 magnetic, 358 true
Markings: nonprecision, in good conditionnonprecision, in good condition
Visual slope indicator: 2-box VASI on left (3.00 degrees glide path)
VASI UNUSABLE BYD 7 DEGS RIGHT & LEFT OF CNTRLN.
2-box VASI on left (3.00 degrees glide path)
VASI UNUSABLE BYD 7 DEGS LEFT OF CNTLRN.
Touchdown point: yes, no lightsyes, no lights
Instrument approach: LOCALIZER
Obstructions: none19 ft. trees, 382 ft. from runway, 135 ft. right of centerline, 9:1 slope to clear
+10 FT ROAD AT 103 FT, +3 FT FENCE AT 65 FT, +17 FT TREES 120 FT FM THLD AND 150 FT R.

Airport Ownership and Management from official FAA records

Ownership: Privately-owned
Owner: HUNTER GROUP LLC
13000 N. SARA RD.
YUKON, OK 73099
Phone 405-373-3886
Manager: JERRY HUNTER
13000 N. SARA RD.
YUKON, OK 73099
Phone 405-373-3886
JUSTIN SKAGGS GENERAL MANAGER 405-568-1663

Airport Operational Statistics

Aircraft based on the field: 210
Single engine airplanes: 170
Multi engine airplanes: 31
Jet airplanes: 8
Helicopters: 1
    
Aircraft operations: avg 124/day *
65% local general aviation
35% transient general aviation
<1% military
* for 12-month period ending 04 November 2019

Additional Remarks

FOR CD CTC OKE CITY APCH AT 405-681-5683.

Instrument Procedures

NOTE: All procedures below are presented as PDF files. If you need a reader for these files, you should download the free Adobe Reader.

NOT FOR NAVIGATION. Please procure official charts for flight.
FAA instrument procedures published for use from 22 April 2021 at 0901Z to 20 May 2021 at 0900z.

 
STARs - Standard Terminal Arrivals
GULLI TWO   2 pages: [1] [2] (338KB)
 
IAPs - Instrument Approach Procedures
RNAV (GPS) RWY 18   download (220KB)
RNAV (GPS) RWY 36   download (191KB)
VOR RWY 18 **CHANGED**   download (195KB)
NOTE: Special Take-Off Minimums/Departure Procedures apply   download (851KB)

Other nearby airports with instrument procedures:

KPWA - Wiley Post Airport (5 nm SE)
KRCE - Clarence E Page Municipal Airport (9 nm SW)
KOKC - Will Rogers World Airport (14 nm S)
KRQO - El Reno Regional Airport (17 nm SW)
KTIK - Tinker Air Force Base (19 nm SE)
 
Loc | Ops | Rwys | IFR | FBO | Links
Com | Nav | Svcs | Stats | Notes
Area around KHSD (Sundance Airport)
 
Road maps at: MapQuest Bing Google
 
Aerial photo
WARNING: Photo may not be current or correct
Aerial photo of KHSD (Sundance Airport)
Photo taken 23-Jun-2016
looking south.

Do you have a better or more recent aerial photo of Sundance Airport that you would like to share? If so, please send us your photo.

 
Sectional chart

 
Airport diagram
CAUTION: Diagram may not be current
Diagram of KHSD (Sundance Airport)
 
Airport distance calculator
Flying to Sundance Airport? Find the distance to fly.

From to KHSD

Sunrise and sunset
Times for 18-May-2021
 Local
(UTC-5)
 Zulu
(UTC)
Morning civil twilight05:5610:56
Sunrise06:2511:25
Sunset20:3001:30
Evening civil twilight20:5801:58

Current date and time
Zulu (UTC)  18-May-2021 17:04:59
Local (UTC-5)  18-May-2021 12:04:59
 
METAR
KHSD 181655Z AUTO 15010KT 10SM 22/17 A2989 RMK A01
KPWA 
5nm SE 
181653Z 15014KT 10SM BKN024 OVC034 23/16 A2989 RMK AO2 SLP108 T02280161
KRCE 
9nm SW 
181655Z AUTO VRB04KT 10SM SCT024 BKN029 OVC095 22/18 A2989 RMK AO2
KOKC 
14nm S 
181652Z 15012KT 10SM SCT019 BKN026 OVC060 22/17 A2989 RMK AO2 SLP110 T02170167
KRQO 
17nm SW 
181635Z AUTO 15010KT 10SM BKN018 OVC025 22/18 A2992 RMK AO2 T02180178
KTIK 
20nm SE 
181611Z AUTO 17008KT 10SM BKN018 BKN023 BKN029 22/18 A2990 RMK AO2 SLP123 $
TAF
KOKC 
14nm S 
181535Z 1816/1912 16011KT P6SM BKN015 BKN040 FM181900 12009KT P6SM SCT035 BKN050 FM182100 14009KT P6SM VCTS SCT035 BKN050CB
KTIK 
20nm SE 
181340Z 1813/1915 09008KT 9999 SCT030 OVC050 QNH2983INS TEMPO 1814/1816 OVC015 BECMG 1816/1817 12009KT 9999 BKN030 BKN070 QNH2979INS BECMG 1821/1822 15012KT 4800 -TSRA SCT007CB OVC014 QNH2978INS TEMPO 1822/1823 21020G30KT 3200 TSRA SCT004CB OVC008 BECMG 1900/1901 11010KT 8000 -RA SCT011 OVC025 QNH2981INS BECMG 1905/1906 14010KT 9999 NSW OVC008 QNH2988INS TX23/1823Z TN15/1908Z
NOTAMs
Click for the latest NOTAMs
NOTAMs are issued by the DoD/FAA and will open in a separate window not controlled by AirNav.

 

 
 

FBO, Fuel Providers, and Aircraft Ground Support

  
 Business Name 
 
 Contact 
 
 Services / Description 
 
Fuel Prices
 
Comments
  
Sundance Airport LLC UNICOM 122.70
405-373-3886
[web site]
[email]
New AWOS and NEVER A RAMP FEE. Maintenance Department offers MAJOR comprehensive repair including Annuals, and Sundance Flight Academy includes a Redbird FMX Simulator. New Courtesy Cars and completely remodeled, state-of-the-art FBO.
More info and photos of Sundance Airport LLC
 
AirBoss™ fuel program   AVTRIP   Crew cars   Enterprise Rent-A-Car   Hertz  
 
EPIC
100LL Jet A
FS $4.15 $3.25 
SS $3.85 --- 
GUARANTEED
AirBossMEMBERS
ONLY
Discounts
LoginJoin
 
   12 read write
FS=Full service
SS=Self service
Update Fuel Prices
 

Would you like to see your business listed on this page?

 If your business provides an interesting product or service to pilots, flight crews, aircraft, or users of the Sundance Airport, you should consider listing it here.  To start the listing process, click on the button below
 
Add a business
 

Other Pages about Sundance Airport

sundanceairport.com
 
Update a link
 
Copyright © AirNav, LLC. All rights reserved. Privacy Policy  Contact